User: anonymous   Login
Location: Laterina
(43.5167°N, 11.7167°E)
Time: 13:21:59
(UTC+00:00)
Language:

SJ 16-02 - Orbit

View from above orbital plane
View from above orbital plane
View from above satellite
View from above satellite

Ground track
Ground track

The orbit data is extracted from the following two-line orbital elements,

1 41634U 16043A   20331.09120058  .00000110  00000-0  15830-4 0  9999
2 41634  75.0017 130.4692 0008258 266.1526  93.8722 14.85732989239243
Epoch (UTC): 26 November 2020 02:11:19
Eccentricity: 0.0008258
inclination: 75.0017°
perigee height: 605 km
apogee height: 617 km
right ascension of ascending node: 130.4692°
argument of perigee: 266.1526°
revolutions per day: 14.85732989
mean anomaly at epoch: 93.8722°
orbit number at epoch: 23924

The dashed part of the orbit path shows where the satellite is in the earth's shadow,  

DLR